Temperature
19 17 17 18 18 19 19 19 18 18 19 18 17 17 16 16 16 16 16 16 16 16 16 16 16 16 16 16 16 16 15 15 15 15 15 14 14 14 14 13 13 13 13 13
17 18 18 18 18 18 18 18 18 18 18 18 17 17 16 16 16 16 16 16 16 16 15 16 16 16 16 16 15 15 15 15 15 15 14 14 14 14 13 13 13 13 13 13
19 19 19 19 19 19 19 18 18 18 18 18 17 17 16 16 16 16 16 16 16 16 15 15 15 15 15 15 15 15 14 14 14 14 14 14 13 13 13 13 12 12 12 12
18 18 19 19 19 19 19 19 19 19 17 16 18 17 17 16 16 15 15 15 15 15 15 15 15 15 15 15 15 14 14 14 14 13 13 13 13 13 13 12 12 12 12 12
19 19 19 20 20 19 19 19 18 18 17 16 16 16 16 16 16 15 15 15 15 15 15 15 15 15 15 14 14 14 14 13 13 13 13 13 13 12 12 12 12 12 11 11
19 19 20 20 20 20 19 18 17 15 15 16 17 16 16 15 16 16 15 15 15 15 15 15 15 15 14 14 14 14 13 13 13 13 12 12 12 12 12 11 11 11 11 11
19 19 20 20 20 19 18 17 16 17 15 16 16 16 15 16 15 15 15 15 15 15 15 14 14 14 14 13 13 13 13 13 12 12 12 12 12 11 11 11 11 11 11 11
19 18 20 20 20 19 18 17 17 17 16 15 16 15 16 16 15 16 15 15 15 14 14 14 14 14 14 13 13 13 13 12 12 12 11 11 11 11 11 11 11 10 10 10
18 18 20 20 20 19 18 17 16 15 15 15 15 15 16 15 15 14 14 14 14 14 14 14 14 13 13 13 13 12 12 12 11 11 11 11 11 11 11 10 10 10 10 10
18 19 19 20 20 19 18 15 14 15 15 16 16 16 15 16 15 14 13 13 13 14 13 13 13 13 13 13 12 12 12 12 11 11 11 11 10 10 10 10 10 10 10 9
18 18 19 19 19 19 18 16 14 13 14 15 15 15 16 15 14 14 13 13 13 13 13 13 13 13 13 12 12 12 12 11 11 11 10 10 10 10 10 10 9 9 9 9
16 15 16 18 18 18 18 16 15 16 15 14 14 15 15 14 14 14 13 13 13 13 13 13 12 12 12 12 12 11 11 11 11 10 10 10 10 10 9 9 9 9 9 9
16 15 16 17 17 17 17 16 15 14 13 13 14 15 14 14 13 13 13 13 13 13 12 12 12 12 12 12 11 11 11 11 10 10 10 10 9 9 9 9 9 9 9 9
16 14 15 17 16 17 17 17 15 14 14 14 14 15 14 13 13 12 13 13 13 12 12 12 12 12 11 11 11 11 11 10 10 10 10 9 9 9 9 9 9 8 8 8
15 15 16 16 17 17 17 17 16 15 15 15 15 15 15 14 13 13 12 12 12 12 12 12 12 12 11 11 11 11 10 10 10 10 9 9 9 9 8 8 8 8 8 8
14 15 16 16 17 17 17 17 16 16 16 15 15 15 14 13 13 12 12 12 12 12 12 12 12 12 11 11 11 10 10 10 10 9 9 9 9 9 8 8 8 8 8 8
13 14 15 15 16 17 16 16 16 16 16 15 15 15 13 12 12 12 12 12 12 12 12 12 12 12 11 11 11 10 10 10 9 9 9 9 9 8 8 8 8 8 8 8
13 13 12 14 16 16 16 16 16 16 16 15 15 14 13 13 13 14 14 14 13 13 12 12 12 12 11 11 11 10 10 9 9 9 9 9 9 8 8 8 8 8 8 8
13 13 12 13 14 15 16 16 16 16 16 15 14 13 13 13 13 13 14 14 14 13 13 12 12 12 11 11 10 10 10 9 9 9 9 9 9 8 8 8 8 8 8 8
12 12 12 13 15 15 16 17 16 16 15 15 13 12 12 13 12 12 14 14 13 13 12 12 12 11 11 11 10 10 10 9 9 9 9 9 8 8 8 8 8 8 8 8
14 13 13 13 14 14 15 16 17 16 15 15 14 13 13 13 14 14 14 14 13 13 12 12 12 11 11 10 10 10 10 9 9 9 9 9 8 8 8 8 8 8 8 8
13 13 12 12 14 14 15 15 15 15 16 15 15 15 14 14 14 14 14 13 13 12 12 12 11 11 11 10 10 10 10 9 9 9 9 9 8 8 8 8 8 8 8 8
13 13 12 13 13 14 15 15 17 17 16 16 15 15 15 14 14 14 13 13 13 12 12 12 11 11 10 10 10 10 10 9 9 9 9 9 9 9 8 8 8 8 8 8
13 12 12 12 13 14 15 16 17 17 17 16 16 15 15 14 14 13 13 13 12 12 12 11 11 11 10 10 10 10 10 9 9 9 9 9 9 9 9 8 8 8 8 8
13 12 12 13 13 14 15 16 16 16 16 16 15 15 15 14 14 13 13 13 12 12 11 11 11 11 10 10 10 10 10 9 9 9 9 9 9 9 9 9 9 9 9 9
12 12 13 13 14 13 15 16 16 16 16 16 15 14 14 14 14 13 13 12 12 12 11 11 11 10 10 10 10 10 9 9 9 9 9 9 9 9 9 9 9 9 9 9
Wind_Speed
3 5 2 6 6 5 4 3 3 4 2 3 3 3 5 7 6 7 8 8 8 7 5 5 5 6 6 5 4 3 4 4 4 3 3 3 2 2 2 4 6 6 6 6
5 1 5 4 5 5 4 2 2 2 1 3 2 1 2 7 8 8 10 9 9 7 6 5 6 5 5 5 4 3 3 3 3 3 3 2 2 2 1 3 6 6 6 5
3 5 2 4 4 4 3 5 4 3 2 3 4 2 2 3 3 4 5 7 7 9 9 8 6 5 5 5 4 3 3 3 4 4 4 4 3 3 2 3 2 5 5 5
2 3 2 3 3 5 3 4 6 4 2 1 2 2 4 3 3 5 6 6 8 8 8 8 8 7 6 5 4 4 4 4 4 4 4 4 3 2 0 1 1 4 5 5
3 1 2 2 4 6 4 3 5 3 3 1 2 2 5 1 4 7 7 7 8 9 9 9 8 7 6 5 4 4 5 5 4 4 4 4 3 2 1 1 2 3 4 5
5 2 3 4 1 4 6 6 6 6 4 1 2 3 5 4 6 6 6 7 7 8 8 8 7 7 6 6 5 5 6 4 3 3 3 4 4 3 2 2 2 2 2 3
4 3 2 3 2 2 5 6 4 4 3 4 2 2 7 5 5 6 7 7 7 8 9 9 9 8 7 6 5 5 5 4 3 3 3 2 3 3 2 0 1 1 2 2
1 4 3 2 5 5 4 7 7 5 5 4 1 4 6 2 1 2 4 6 6 8 8 8 8 8 8 7 6 5 4 3 3 3 2 2 2 1 1 1 1 1 2 2
5 4 3 1 1 6 5 3 5 6 3 1 4 5 5 1 1 2 4 6 6 7 8 8 8 8 7 6 5 5 4 3 3 3 2 2 1 1 0 0 0 1 1 1
6 3 3 2 3 4 4 8 5 5 5 3 4 4 5 4 4 4 5 5 6 6 7 8 8 8 7 6 4 4 5 4 3 3 2 2 2 1 1 1 1 2 2 2
3 3 3 2 1 2 3 4 5 4 4 5 4 6 4 6 6 7 7 6 7 7 7 7 7 7 7 6 5 4 4 4 3 2 3 3 2 2 3 2 2 2 2 3
3 4 1 3 3 1 3 5 6 4 4 4 4 6 3 4 5 7 7 6 6 6 6 6 7 7 7 7 5 5 4 4 3 3 3 3 2 3 3 2 2 2 3 3
5 5 2 5 5 3 2 2 3 5 4 4 4 6 1 4 5 5 7 7 7 7 7 6 6 6 6 6 5 4 4 4 3 3 4 3 2 2 2 2 2 2 2 3
5 4 6 7 7 3 2 2 3 4 3 4 6 6 3 4 5 5 6 7 7 8 8 7 6 6 5 5 5 5 4 4 4 4 3 2 1 1 1 1 2 2 2 2
5 3 3 4 4 3 3 4 5 5 6 7 6 6 7 7 8 8 7 7 8 8 8 8 8 6 6 5 5 5 4 4 4 4 3 1 1 1 1 2 2 2 3 3
3 3 1 2 1 1 2 4 4 4 4 4 3 5 4 4 6 7 8 9 9 9 9 8 8 8 7 7 6 5 4 4 4 4 3 2 2 1 1 2 2 2 3 3
2 4 3 2 3 1 3 5 5 4 4 6 6 6 5 5 8 10 10 10 10 10 10 10 9 8 8 7 7 7 5 4 4 4 3 2 2 1 0 1 1 1 2 3
6 4 3 1 1 3 7 3 4 4 4 5 5 5 7 7 5 5 7 10 9 9 10 10 9 8 7 6 6 6 5 5 4 3 3 2 2 1 0 1 1 1 1 2
4 6 4 3 2 5 6 2 3 3 4 4 5 5 4 5 4 0 4 7 9 9 8 8 8 7 7 7 7 7 5 4 4 3 3 2 2 2 1 0 1 1 1 2
5 5 5 3 2 5 6 3 3 3 4 3 6 7 7 7 3 5 5 7 7 7 7 7 7 7 7 7 7 7 5 4 4 4 3 2 2 3 2 2 2 1 1 2
3 3 3 3 4 6 5 1 4 3 6 3 7 8 9 7 5 4 7 6 7 7 7 8 8 7 7 7 8 7 5 4 4 3 3 2 2 2 2 1 1 1 2 2
5 4 4 4 3 6 3 4 5 7 2 3 5 6 7 4 4 6 7 8 8 8 7 8 8 7 6 7 8 7 5 4 3 3 3 2 2 2 1 1 1 1 1 2
5 7 6 7 7 5 3 4 4 3 3 3 5 5 6 5 5 6 6 8 7 8 7 7 8 7 6 7 8 7 5 4 4 3 2 2 1 1 1 1 1 1 1 2
2 2 3 3 5 4 3 2 2 3 3 3 4 6 7 6 7 7 7 7 7 7 7 7 8 8 6 6 6 6 5 5 5 3 2 2 1 1 1 1 2 2 3 3
5 4 2 3 4 1 2 3 3 2 4 5 5 5 7 8 8 8 8 8 7 6 6 7 8 8 7 6 5 5 5 6 4 3 2 2 1 2 2 2 3 4 5 5
5 7 6 7 7 5 5 4 4 5 5 6 6 5 5 7 9 8 8 7 7 7 6 7 7 7 6 6 5 5 5 6 5 3 2 2 2 2 2 3 4 5 7 8
Wind_Direction
60 77 176 211 193 170 156 171 234 253 227 160 181 194 191 172 179 184 185 182 177 175 148 135 125 122 115 105 104 107 111 116 121 117 114 101 85 59 40 39 43 39 36 39
42 291 226 188 162 148 150 157 271 306 97 152 150 204 199 182 196 197 194 190 179 166 155 143 134 132 133 128 119 115 124 129 126 118 118 114 109 82 56 33 33 33 34 30
182 240 187 149 151 154 179 178 207 212 44 64 111 340 263 222 199 201 194 181 173 173 169 161 151 144 138 139 152 150 130 124 117 111 103 96 76 58 41 23 10 13 25 27
247 261 175 162 190 162 232 204 179 166 112 319 124 229 267 236 222 216 209 187 180 175 169 164 156 149 148 151 146 136 118 105 104 109 116 119 112 102 56 342 344 359 17 18
266 222 158 197 212 161 187 125 122 128 130 68 15 159 278 200 229 233 217 195 183 178 172 166 156 148 139 135 130 129 113 101 101 110 120 114 106 113 85 38 14 1 359 7
248 245 206 209 191 146 137 85 64 57 73 63 257 179 267 227 224 231 214 193 183 172 162 154 144 134 129 126 117 112 109 102 102 108 115 127 128 116 85 42 6 347 340 349
322 308 252 165 114 75 110 102 43 5 6 251 261 197 247 248 232 223 216 197 177 163 158 155 151 146 142 135 121 114 113 105 105 112 115 129 137 138 140 170 305 326 334 332
259 294 256 191 181 180 172 145 160 192 215 262 288 234 253 268 266 194 183 171 159 155 158 159 157 152 148 140 134 127 120 110 109 112 113 116 131 139 161 203 237 295 294 298
187 253 283 248 158 142 145 162 158 135 144 199 264 273 296 201 110 126 140 149 159 159 156 153 150 149 142 137 137 138 130 118 107 102 98 90 91 112 152 308 6 307 301 317
168 214 293 299 77 38 137 143 105 125 155 227 263 257 247 234 202 172 162 166 167 154 150 145 144 141 137 133 128 126 124 123 118 105 96 90 73 74 72 37 4 351 348 4
140 167 305 17 139 201 106 101 111 122 153 165 231 260 231 212 193 182 177 169 161 155 148 143 142 141 136 132 137 137 126 118 115 108 96 85 68 67 69 59 32 22 18 13
138 127 254 282 292 194 150 158 149 158 210 180 189 258 288 192 171 163 158 154 150 144 140 139 139 140 142 145 148 147 141 137 136 123 105 92 74 65 62 48 28 25 26 14
137 115 58 341 344 11 87 127 130 124 124 162 183 257 12 112 131 148 153 155 152 147 145 141 141 150 155 154 154 151 148 146 139 126 112 98 81 70 52 32 20 20 23 15
120 119 167 205 227 213 204 185 157 138 162 204 219 230 228 180 171 166 161 163 158 159 160 158 158 161 163 162 159 155 150 146 138 125 118 115 114 89 35 13 19 23 24 17
100 142 199 239 243 196 211 216 193 194 196 199 227 218 230 203 187 176 166 163 164 167 168 169 168 165 162 160 158 154 150 146 139 131 132 145 124 90 57 29 24 22 16 9
80 141 148 310 299 189 249 245 210 219 207 208 213 246 237 163 145 156 166 171 178 181 178 176 173 167 167 169 165 159 158 154 143 143 150 146 119 91 60 34 33 23 7 1
113 132 127 263 297 8 283 243 207 206 200 181 209 224 164 160 174 179 182 184 189 187 179 177 178 175 172 171 167 166 166 152 146 150 155 152 139 119 74 43 46 17 353 354
142 125 131 153 29 244 252 249 193 199 224 210 206 189 181 185 179 183 184 185 187 184 180 178 174 171 167 163 160 157 151 150 153 161 167 166 152 157 120 45 8 337 335 338
150 140 129 133 210 278 289 248 169 176 255 209 184 166 146 121 85 340 191 183 186 181 176 173 170 165 161 162 159 151 153 155 161 177 183 183 168 163 157 310 306 308 324 325
70 97 122 139 178 243 254 266 164 113 282 220 166 164 156 135 160 233 190 170 166 160 157 157 152 149 157 162 153 151 160 163 184 195 193 179 168 171 195 233 267 288 294 301
75 73 128 166 214 259 256 227 121 163 249 220 173 170 167 181 196 179 152 156 156 153 153 150 149 156 165 158 152 156 164 186 199 189 173 169 175 186 203 227 264 289 302 314
171 161 179 158 197 253 252 142 178 219 245 173 170 167 166 161 136 140 149 153 151 148 149 151 152 159 158 155 154 161 182 193 172 160 160 171 189 203 187 195 290 301 304 318
191 192 186 189 213 244 247 214 222 186 176 179 169 166 150 142 150 148 152 154 152 151 154 152 152 151 155 161 161 170 186 169 153 153 170 188 200 210 199 204 257 297 295 291
235 152 150 230 260 258 259 254 227 182 178 163 151 149 149 154 157 151 150 149 148 148 152 149 148 153 165 171 172 179 176 158 152 165 190 198 203 247 262 240 235 246 261 272
206 164 168 246 264 283 271 222 175 137 119 114 116 139 153 147 151 155 155 155 154 149 148 151 157 166 174 172 177 179 168 157 160 177 198 208 216 237 266 271 249 244 248 237
203 189 186 223 221 198 226 213 166 144 148 147 134 130 144 151 151 151 154 154 152 152 150 153 160 166 170 168 178 178 168 163 166 182 205 218 230 249 259 281 302 273 251 259
Height
1502 1508 1512 1510 1509 1510 1513 1518 1521 1518 1513 1516 1519 1520 1519 1519 1521 1522 1523 1524 1526 1528 1531 1534 1536 1537 1539 1541 1543 1544 1545 1546 1547 1548 1548 1549 1550 1550 1550 1550 1550 1549 1549 1549
1507 1510 1505 1504 1506 1509 1513 1518 1520 1516 1513 1515 1520 1520 1517 1518 1518 1519 1520 1523 1525 1528 1530 1532 1534 1536 1538 1540 1542 1543 1545 1545 1546 1547 1547 1548 1549 1549 1549 1549 1549 1549 1548 1548
1507 1505 1501 1503 1506 1510 1512 1516 1516 1517 1515 1516 1519 1524 1520 1517 1518 1519 1520 1522 1524 1525 1527 1530 1532 1534 1536 1538 1540 1542 1543 1544 1545 1546 1546 1547 1548 1549 1549 1549 1548 1548 1548 1547
1504 1500 1501 1502 1505 1506 1514 1507 1510 1513 1521 1527 1523 1534 1523 1519 1518 1518 1518 1519 1521 1523 1525 1528 1530 1532 1535 1537 1539 1541 1542 1542 1544 1545 1546 1547 1547 1547 1548 1548 1548 1547 1547 1546
1503 1500 1501 1503 1502 1502 1506 1505 1509 1514 1522 1529 1527 1533 1527 1519 1519 1516 1515 1517 1518 1521 1523 1526 1528 1531 1534 1536 1538 1540 1540 1542 1543 1544 1545 1546 1547 1547 1547 1547 1547 1547 1546 1545
1499 1497 1498 1498 1497 1499 1502 1508 1514 1522 1528 1537 1529 1532 1529 1521 1515 1512 1512 1514 1516 1519 1522 1525 1527 1530 1532 1534 1537 1539 1539 1541 1542 1544 1545 1545 1546 1546 1546 1546 1546 1545 1544 1544
1502 1498 1495 1495 1500 1501 1504 1517 1534 1536 1544 1540 1528 1530 1526 1512 1510 1509 1510 1511 1514 1517 1520 1523 1526 1529 1531 1534 1536 1538 1539 1540 1542 1543 1544 1545 1545 1545 1545 1545 1544 1544 1543 1542
1510 1510 1496 1493 1496 1502 1505 1512 1531 1540 1544 1539 1529 1529 1517 1509 1507 1507 1508 1510 1512 1515 1518 1521 1524 1527 1530 1533 1535 1537 1539 1540 1541 1542 1543 1544 1544 1544 1544 1544 1543 1543 1542 1541
1509 1507 1492 1491 1491 1495 1505 1511 1512 1527 1533 1538 1533 1523 1513 1507 1507 1507 1508 1509 1511 1514 1517 1521 1524 1527 1530 1532 1534 1536 1538 1539 1541 1542 1542 1542 1543 1543 1543 1543 1542 1542 1541 1540
1497 1504 1495 1492 1492 1495 1498 1506 1518 1527 1537 1539 1530 1524 1519 1509 1508 1508 1509 1510 1511 1514 1517 1520 1523 1526 1529 1531 1534 1536 1538 1539 1540 1541 1541 1542 1542 1542 1542 1542 1542 1541 1540 1539
1494 1503 1500 1496 1497 1499 1502 1508 1515 1524 1525 1534 1537 1527 1506 1504 1504 1506 1508 1510 1512 1514 1517 1520 1522 1525 1528 1531 1533 1535 1537 1539 1540 1540 1541 1542 1542 1542 1542 1541 1541 1540 1539 1538
1495 1504 1509 1501 1495 1493 1496 1503 1511 1520 1523 1527 1530 1524 1501 1500 1501 1504 1508 1510 1513 1515 1517 1520 1522 1525 1528 1530 1533 1535 1536 1538 1539 1540 1541 1541 1542 1542 1541 1541 1540 1539 1538 1537
1494 1505 1515 1512 1507 1500 1500 1502 1506 1513 1521 1527 1528 1518 1501 1501 1503 1505 1507 1510 1513 1515 1518 1520 1523 1525 1528 1530 1532 1534 1536 1537 1539 1540 1540 1541 1541 1541 1541 1540 1540 1539 1538 1537
1489 1502 1510 1514 1509 1501 1501 1501 1504 1510 1519 1520 1516 1509 1503 1502 1503 1505 1508 1510 1512 1515 1517 1520 1522 1525 1528 1530 1532 1534 1535 1537 1538 1539 1541 1541 1541 1541 1541 1540 1540 1539 1538 1537
1489 1501 1500 1499 1496 1496 1497 1498 1500 1504 1506 1510 1506 1505 1501 1500 1501 1504 1506 1509 1512 1514 1516 1518 1521 1524 1527 1529 1532 1533 1535 1536 1538 1539 1540 1540 1540 1540 1540 1540 1539 1539 1538 1537
1492 1499 1499 1499 1495 1495 1497 1496 1497 1498 1499 1501 1501 1502 1496 1497 1500 1502 1505 1508 1510 1512 1515 1517 1520 1523 1526 1529 1531 1533 1534 1536 1537 1539 1539 1540 1540 1540 1540 1540 1539 1538 1537 1536
1495 1499 1505 1506 1499 1497 1503 1495 1494 1494 1493 1495 1499 1497 1495 1497 1498 1500 1502 1505 1507 1510 1513 1515 1518 1522 1524 1528 1530 1532 1534 1536 1537 1538 1539 1539 1540 1540 1540 1539 1539 1538 1537 1536
1494 1501 1508 1509 1504 1510 1498 1487 1487 1490 1490 1489 1490 1491 1492 1493 1496 1498 1500 1502 1505 1508 1511 1514 1517 1520 1523 1526 1529 1531 1533 1535 1537 1538 1538 1539 1539 1539 1539 1539 1538 1537 1536 1536
1489 1497 1507 1512 1510 1504 1493 1486 1487 1490 1489 1486 1488 1490 1492 1494 1496 1498 1500 1501 1504 1507 1510 1513 1516 1519 1522 1525 1528 1530 1533 1535 1536 1537 1538 1538 1539 1539 1539 1538 1538 1537 1536 1536
1490 1494 1504 1510 1508 1507 1494 1484 1483 1488 1491 1485 1486 1488 1491 1493 1499 1498 1498 1500 1503 1506 1509 1512 1515 1518 1521 1524 1527 1529 1532 1534 1535 1537 1537 1538 1538 1538 1538 1538 1538 1537 1536 1536
1496 1500 1504 1507 1507 1499 1486 1483 1484 1496 1493 1482 1483 1485 1488 1490 1492 1494 1495 1498 1501 1505 1508 1511 1514 1517 1520 1523 1526 1529 1531 1533 1535 1536 1537 1538 1538 1538 1538 1538 1538 1537 1537 1536
1495 1500 1503 1505 1505 1500 1481 1482 1485 1485 1480 1480 1481 1483 1486 1488 1491 1492 1495 1497 1500 1504 1507 1510 1513 1517 1520 1523 1525 1528 1530 1532 1534 1536 1536 1537 1538 1538 1538 1537 1537 1537 1536 1535
1489 1489 1490 1492 1492 1481 1479 1479 1479 1479 1479 1479 1480 1482 1485 1488 1490 1492 1495 1497 1500 1503 1507 1510 1513 1516 1519 1522 1525 1527 1530 1532 1534 1535 1536 1536 1537 1537 1537 1537 1537 1536 1536 1535
1484 1483 1485 1486 1481 1478 1477 1477 1477 1478 1478 1479 1480 1482 1484 1487 1489 1492 1495 1497 1500 1503 1506 1509 1512 1516 1519 1522 1524 1527 1529 1531 1533 1534 1535 1535 1536 1536 1536 1537 1536 1535 1535 1534
1479 1482 1483 1483 1478 1477 1476 1476 1477 1477 1478 1479 1481 1483 1485 1487 1489 1492 1494 1497 1500 1503 1506 1509 1512 1515 1518 1521 1524 1526 1529 1530 1532 1533 1534 1535 1535 1536 1536 1535 1535 1534 1534 1533
1475 1477 1479 1478 1473 1475 1474 1475 1476 1477 1478 1480 1481 1483 1485 1487 1489 1492 1495 1498 1501 1504 1507 1510 1512 1515 1518 1521 1523 1526 1528 1530 1531 1533 1534 1534 1535 1535 1535 1534 1534 1533 1532 1532